EW1617 Weather Reports


Display with metric or nautical units.
time (UTC)temp
F
wind
direction
speed
MPH
gust
MPH
rain 1hr
in
rain 24hr
in
rain mn
in
humidity
%
barometer
mb
20260506215507 70 365 1.0 5.0 0.00 0.00 0.00 71 1020.3
20260506215007 71 117 6.0 7.0 0.00 0.00 0.00 69 1020.3
20260506214507 71 217 4.0 6.0 0.00 0.00 0.00 71 1020.3
20260506214006 69 180 0.0 1.0 0.00 0.00 0.00 76 1020.3
20260506213507 69 180 4.0 5.0 0.00 0.00 0.00 78 1020.3
20260506213007 68 252 5.0 8.0 0.00 0.00 0.00 79 1020.5
20260506212507 68 135 6.0 8.0 0.00 0.00 0.00 77 1020.7
20260506212007 68 144 2.0 5.0 0.00 0.00 0.00 82 1020.7
20260506211507 67 162 4.0 6.0 0.00 0.00 0.00 82 1020.7
20260506211007 67 252 0.0 0.0 0.00 0.00 0.00 85 1020.7
20260506210507 67 315 0.0 1.0 0.00 0.00 0.00 86 1021.0
20260506210007 67 243 0.0 4.0 0.00 0.00 0.00 86 1021.0
20260506205507 67 144 1.0 4.0 0.00 0.00 0.00 85 1021.0
20260506205007 67 126 0.0 1.0 0.00 0.00 0.00 83 1020.9
20260506204507 67 135 0.0 1.0 0.00 0.00 0.00 83 1020.7
20260506204007 67 117 1.0 3.0 0.00 0.00 0.00 84 1021.0
20260506203508 67 54 3.0 5.0 0.00 0.00 0.00 84 1020.7
20260506203006 67 189 2.0 4.0 0.00 0.00 0.00 86 1020.8
20260506202507 67 0 3.0 6.0 0.00 0.00 0.00 85 1020.8
20260506202008 67 135 3.0 6.0 0.00 0.00 0.00 84 1020.7
20260506201507 67 90 0.0 0.0 0.00 0.00 0.00 87 1020.9
20260506201007 66 162 4.0 5.0 0.00 0.00 0.00 87 1021.0
20260506200507 65 207 3.0 5.0 0.00 0.00 0.00 90 1021.0
20260506200007 64 225 0.0 0.0 0.00 0.00 0.00 93 1021.0
20260506195507 63 225 0.0 0.0 0.00 0.00 0.00 93 1021.0
20260506195007 63 261 2.0 5.0 0.00 0.00 0.00 93 1021.2
20260506194507 63 225 1.0 4.0 0.00 0.00 0.00 93 1021.3
20260506194006 63 180 2.0 6.0 0.00 0.00 0.00 93 1021.3
20260506193507 63 153 5.0 5.0 0.00 0.00 0.00 93 1021.3
20260506193007 63 117 5.0 6.0 0.00 0.00 0.00 92 1021.3
20260506192507 63 54 5.0 6.0 0.00 0.00 0.00 93 1021.3
20260506192007 63 108 2.0 4.0 0.00 0.00 0.00 93 1021.3
20260506191507 63 135 3.0 6.0 0.00 0.00 0.00 92 1021.2
20260506191007 63 135 5.0 6.0 0.00 0.00 0.00 93 1021.0
20260506190507 63 135 2.0 5.0 0.00 0.00 0.00 93 1021.2
20260506190007 62 117 3.0 5.0 0.00 0.00 0.00 93 1021.3
20260506185507 62 189 4.0 6.0 0.00 0.00 0.00 94 1021.3
20260506185007 62 135 4.0 9.0 0.00 0.00 0.00 94 1021.0
20260506184506 61 135 1.0 2.0 0.00 0.00 0.00 94 1021.3
20260506184007 61 162 5.0 6.0 0.00 0.00 0.00 94 1021.2
20260506183507 61 171 3.0 6.0 0.00 0.00 0.00 94 1021.1
20260506183007 61 153 4.0 7.0 0.00 0.00 0.00 94 1021.0
20260506182507 61 90 3.0 7.0 0.00 0.00 0.00 94 1021.2
20260506182007 61 45 1.0 5.0 0.00 0.00 0.00 94 1021.3
20260506181507 61 0 0.0 1.0 0.00 0.00 0.00 94 1021.3
20260506181007 61 252 3.0 7.0 0.00 0.00 0.00 94 1021.3
20260506180507 60 171 4.0 5.0 0.00 0.00 0.00 94 1021.0
20260506180007 60 162 2.0 5.0 0.00 0.00 0.00 95 1021.2
20260506175507 60 225 1.0 4.0 0.00 0.00 0.00 95 1021.1
20260506175008 60 207 2.0 6.0 0.00 0.00 0.00 95 1021.3
20260506174506 60 153 2.0 5.0 0.00 0.00 0.00 95 1021.3
20260506174007 60 243 2.0 3.0 0.00 0.00 0.00 95 1021.2
20260506173507 60 262 3.0 5.0 0.00 0.00 0.00 94 1021.0
20260506173006 60 234 2.0 5.0 0.00 0.00 0.00 95 1021.0
20260506172508 60 45 1.0 3.0 0.00 0.00 0.00 95 1021.0
20260506172007 60 45 0.0 4.0 0.00 0.00 0.00 95 1021.0
20260506171507 60 153 2.0 5.0 0.00 0.00 0.00 95 1021.0
20260506171007 59 225 1.0 3.0 0.00 0.00 0.00 95 1021.0
20260506170507 59 225 1.0 1.0 0.00 0.00 0.00 95 1021.0
20260506170007 59 225 1.0 2.0 0.00 0.00 0.00 95 1021.0
20260506165508 59 243 3.0 6.0 0.00 0.00 0.00 95 1021.0
20260506165007 59 180 3.0 5.0 0.00 0.00 0.00 95 1021.0
20260506164506 59 315 3.0 6.0 0.00 0.00 0.00 95 1021.0
20260506164007 59 63 3.0 6.0 0.00 0.00 0.00 95 1021.0
20260506163507 59 207 3.0 5.0 0.00 0.00 0.00 95 1021.0
20260506163007 59 108 2.0 5.0 0.00 0.00 0.00 95 1021.1
20260506162507 59 270 0.0 1.0 0.00 0.00 0.00 95 1021.0
20260506162007 58 270 2.0 5.0 0.00 0.00 0.00 95 1021.0
20260506161507 58 270 0.0 1.0 0.00 0.00 0.00 95 1020.8
20260506161007 58 270 0.0 0.0 0.00 0.00 0.00 95 1020.7
20260506160507 58 261 1.0 4.0 0.00 0.00 0.00 96 1021.0
20260506160007 58 225 1.0 5.0 0.00 0.00 0.00 96 1020.7
20260506155506 57 225 1.0 3.0 0.00 0.00 0.00 96 1020.7
20260506155007 57 306 1.0 3.0 0.00 0.00 0.00 96 1020.5
20260506154507 57 315 0.0 0.0 0.00 0.00 0.00 96 1020.3
20260506154007 57 315 0.0 0.0 0.00 0.00 0.00 97 1020.3
20260506153507 56 315 0.0 0.0 0.00 0.00 0.00 97 1020.4
20260506153007 56 315 0.0 1.0 0.00 0.00 0.00 97 1020.8
20260506152507 56 315 1.0 4.0 0.00 0.00 0.00 97 1021.0
20260506152007 56 315 1.0 4.0 0.00 0.00 0.00 97 1021.0
20260506151507 56 315 0.0 0.0 0.00 0.00 0.00 97 1021.0
20260506151008 56 315 1.0 3.0 0.00 0.00 0.00 97 1021.0
20260506150507 56 315 2.0 5.0 0.00 0.00 0.00 97 1021.0
20260506150007 56 205 1.0 2.0 0.00 0.00 0.00 97 1021.0
20260506145507 56 270 0.0 0.0 0.00 0.00 0.00 97 1021.0
20260506145007 56 270 0.0 1.0 0.00 0.00 0.00 97 1020.9
20260506144506 56 270 1.0 3.0 0.00 0.00 0.00 97 1020.7
20260506144006 56 261 1.0 5.0 0.00 0.00 0.00 97 1020.8
20260506143507 56 261 1.0 3.0 0.00 0.00 0.00 97 1020.7
20260506143007 56 279 1.0 2.0 0.00 0.00 0.00 97 1020.7
20260506142507 56 225 0.0 0.0 0.00 0.00 0.00 97 1020.5
20260506142007 56 225 0.0 2.0 0.00 0.00 0.00 97 1020.3
20260506141507 56 225 1.0 2.0 0.00 0.00 0.00 97 1020.2
20260506141007 56 225 0.0 0.0 0.00 0.00 0.00 97 1020.0
20260506140506 56 225 1.0 2.0 0.00 0.00 0.00 97 1020.3
20260506140007 56 225 0.0 0.0 0.00 0.00 0.00 97 1020.3
20260506135507 56 252 1.0 4.0 0.00 0.00 0.00 97 1020.3
20260506135007 56 306 1.0 4.0 0.00 0.00 0.00 98 1020.1
20260506134508 56 306 0.0 1.0 0.00 0.00 0.00 98 1020.0
20260506134006 56 297 0.0 2.0 0.00 0.00 0.00 98 1020.0
20260506133507 56 297 0.0 1.0 0.00 0.00 0.00 98 1020.0
20260506133007 56 297 0.0 3.0 0.00 0.00 0.00 98 1020.0
20260506132507 56 315 1.0 3.0 0.00 0.00 0.00 98 1020.0
20260506132007 56 306 0.0 0.0 0.00 0.00 0.00 97 1019.9
20260506131507 56 288 0.0 0.0 0.00 0.00 0.00 97 1019.6
20260506131007 56 315 0.0 0.0 0.00 0.00 0.00 97 1019.6
20260506130507 56 306 0.0 0.0 0.00 0.00 0.00 97 1019.6
20260506130006 56 297 0.0 0.0 0.00 0.00 0.00 97 1019.6
20260506125507 56 297 0.0 0.0 0.00 0.00 0.00 97 1019.6
20260506125007 56 306 0.0 0.0 0.00 0.00 0.00 97 1019.6
20260506124508 56 306 0.0 0.0 0.00 0.00 0.00 97 1019.6
20260506124006 56 304 0.0 0.0 0.00 0.00 0.00 97 1019.6
20260506123507 56 306 0.0 0.0 0.00 0.00 0.00 97 1019.3
20260506123007 56 297 0.0 0.0 0.00 0.00 0.00 97 1019.5
20260506122507 56 306 0.0 0.0 0.00 0.00 0.00 97 1019.6
20260506122006 56 297 0.0 0.0 0.00 0.00 0.00 97 1019.6
20260506121507 56 297 0.0 0.0 0.00 0.00 0.00 97 1019.6
20260506121007 56 288 0.0 1.0 0.00 0.00 0.00 97 1019.6
20260506120507 56 306 1.0 3.0 0.00 0.00 0.00 97 1019.6
20260506120007 56 244 3.0 6.0 0.00 0.00 0.00 97 1019.6
20260506115506 56 181 5.0 8.0 0.00 0.00 0.00 97 1019.4
20260506115007 56 243 2.0 5.0 0.00 0.00 0.00 97 1019.3
20260506114507 56 252 2.0 5.0 0.00 0.00 0.00 97 1019.3
20260506114007 56 216 2.0 5.0 0.00 0.00 0.00 97 1019.3
20260506113507 56 117 5.0 7.0 0.00 0.00 0.00 97 1019.3
20260506113007 56 270 2.0 4.0 0.00 0.00 0.00 97 1019.3
20260506112506 56 297 2.0 4.0 0.00 0.00 0.00 97 1019.3
20260506112007 56 234 1.0 6.0 0.00 0.00 0.00 96 1019.2
20260506111508 56 315 0.0 0.0 0.00 0.00 0.00 96 1019.0
20260506111007 56 315 2.0 5.0 0.00 0.00 0.00 96 1019.0
20260506110507 57 54 1.0 4.0 0.00 0.00 0.00 96 1019.0
20260506110007 57 0 0.0 0.0 0.00 0.00 0.00 96 1018.8
20260506105507 57 0 0.0 1.0 0.00 0.00 0.00 96 1018.6
20260506105006 57 146 1.0 4.0 0.00 0.00 0.00 96 1018.6
20260506104507 57 270 0.0 2.0 0.00 0.00 0.00 96 1018.6
20260506104008 57 146 5.0 6.0 0.00 0.00 0.00 96 1018.6
20260506103506 57 126 1.0 2.0 0.00 0.00 0.00 96 1018.6
20260506103007 57 315 0.0 1.0 0.00 0.00 0.00 96 1018.6
20260506102507 57 315 0.0 1.0 0.00 0.00 0.00 96 1018.3
20260506102007 57 315 0.0 0.0 0.00 0.00 0.00 96 1018.3
20260506101507 57 315 1.0 5.0 0.00 0.00 0.00 96 1018.3
20260506101008 57 307 3.0 5.0 0.00 0.00 0.00 96 1018.3
20260506100507 57 270 0.0 1.0 0.00 0.00 0.00 96 1018.3
20260506100006 57 270 1.0 3.0 0.00 0.00 0.00 96 1018.3
20260506095507 57 108 1.0 2.0 0.00 0.00 0.00 96 1018.3
20260506095007 57 288 1.0 4.0 0.00 0.00 0.00 96 1018.0
20260506094507 57 325 2.0 5.0 0.00 0.00 0.00 96 1018.0
20260506094007 57 0 1.0 5.0 0.00 0.00 0.00 96 1018.0
20260506093507 57 126 4.0 6.0 0.00 0.00 0.00 96 1018.0
20260506093007 57 315 0.0 0.0 0.00 0.00 0.00 96 1018.0
20260506092506 57 315 1.0 5.0 0.00 0.00 0.00 96 1018.0
20260506092007 57 297 3.0 6.0 0.00 0.00 0.00 96 1018.0
20260506091508 58 270 1.0 3.0 0.00 0.00 0.00 96 1018.0
20260506091007 58 54 1.0 3.0 0.00 0.00 0.00 96 1018.0
20260506090507 58 0 0.0 1.0 0.00 0.00 0.00 96 1018.0
20260506090006 58 0 0.0 0.0 0.00 0.00 0.00 96 1018.0
20260506085507 58 0 0.0 0.0 0.00 0.00 0.00 96 1018.0
20260506085007 58 0 0.0 0.0 0.00 0.00 0.00 96 1018.0
20260506084507 58 0 0.0 1.0 0.00 0.00 0.00 95 1018.0
20260506084006 58 162 1.0 5.0 0.00 0.00 0.00 96 1018.0
20260506083507 58 216 1.0 5.0 0.00 0.00 0.00 96 1018.0
20260506083007 58 270 0.0 0.0 0.00 0.00 0.00 96 1018.0
20260506082507 58 235 1.0 5.0 0.00 0.00 0.00 96 1018.0
20260506082007 58 315 0.0 0.0 0.00 0.00 0.00 96 1018.0
20260506081507 58 315 0.0 2.0 0.00 0.00 0.00 96 1018.0
20260506081007 59 315 0.0 0.0 0.00 0.00 0.00 96 1018.0
20260506080507 59 315 0.0 0.0 0.00 0.00 0.00 96 1018.0
20260506073507 59 315 2.0 6.0 0.00 0.00 0.00 96 1017.5
20260506073007 59 270 0.0 3.0 0.00 0.00 0.00 96 1017.5
20260506072507 59 270 1.0 3.0 0.00 0.00 0.00 96 1017.3
20260506072007 59 270 0.0 0.0 0.00 0.00 0.00 96 1017.3
20260506071507 59 270 0.0 0.0 0.00 0.00 0.00 96 1017.3
20260506071006 59 270 1.0 2.0 0.00 0.00 0.00 96 1017.3
20260506070508 59 270 0.0 1.0 0.00 0.00 0.00 96 1017.3
20260506062507 58 0 0.0 0.0 0.00 0.00 0.00 98 1016.9
20260506062007 58 0 0.0 0.0 0.00 0.00 0.00 98 1016.9
20260506061507 58 0 0.0 0.0 0.00 0.00 0.00 98 1016.9
20260506061007 58 0 0.0 0.0 0.00 0.00 0.00 98 1016.9
20260506060507 58 0 0.0 0.0 0.00 0.00 0.00 98 1016.9
20260506051007 57 0 0.0 0.0 0.00 0.00 0.00 98 1016.6
20260506050507 57 0 0.0 0.0 0.00 0.00 0.00 98 1016.6
20260506045008 56 0 0.0 0.0 0.00 0.00 0.00 98 1016.6
20260506044506 56 0 0.0 0.0 0.00 0.00 0.00 97 1016.6
20260506044007 56 0 0.0 0.0 0.00 0.00 0.00 97 1016.6
20260506043507 56 0 0.0 0.0 0.00 0.00 0.00 97 1016.5
20260506043007 57 0 0.0 0.0 0.00 0.00 0.00 97 1016.3
20260506042507 57 0 0.0 0.0 0.00 0.00 0.00 97 1016.3
20260506042007 57 0 0.0 0.0 0.00 0.00 0.00 96 1016.3
20260506041507 57 0 0.0 0.0 0.00 0.00 0.00 96 1016.3
20260506041007 58 0 0.0 0.0 0.00 0.00 0.00 96 1016.3
20260506040507 58 0 0.0 0.0 0.00 0.00 0.00 96 1016.3
20260506040007 58 0 0.0 0.0 0.00 0.00 0.00 96 1015.9
20260506035507 59 0 0.0 0.0 0.00 0.00 0.00 95 1015.9
20260506035006 59 0 0.0 0.0 0.00 0.00 0.00 95 1015.9
20260506034507 59 0 0.0 0.0 0.00 0.00 0.00 95 1015.9
20260506034007 60 0 0.0 0.0 0.00 0.00 0.00 94 1015.6
20260506033507 60 0 0.0 0.0 0.00 0.00 0.00 94 1015.6
20260506033007 61 0 0.0 0.0 0.00 0.00 0.00 94 1015.6
20260506032507 61 0 0.0 0.0 0.00 0.00 0.00 93 1015.6
20260506032007 61 0 0.0 0.0 0.00 0.00 0.00 93 1015.6
20260506031507 62 0 0.0 0.0 0.00 0.00 0.00 93 1015.6
20260506031006 62 0 0.0 0.0 0.00 0.00 0.00 92 1015.6
20260506030507 62 0 0.0 0.0 0.00 0.00 0.00 92 1015.4
20260506030007 63 0 0.0 0.0 0.00 0.00 0.00 92 1015.2
20260506025507 63 0 1.0 2.0 0.00 0.00 0.00 92 1015.2
20260506025007 63 27 1.0 4.0 0.00 0.00 0.00 91 1015.2
20260506024507 64 45 0.0 0.0 0.00 0.00 0.00 91 1015.2
20260506024007 64 45 0.0 0.0 0.00 0.00 0.00 91 1015.2
20260506023508 64 45 0.0 0.0 0.00 0.00 0.00 89 1015.2
20260506023007 64 18 1.0 5.0 0.00 0.00 0.00 88 1015.2
20260506022506 64 27 3.0 6.0 0.00 0.00 0.00 86 1015.2
20260506022007 65 45 0.0 0.0 0.00 0.00 0.00 87 1015.2
20260506021507 65 45 1.0 4.0 0.00 0.00 0.00 88 1015.2
20260506021007 65 45 0.0 0.0 0.00 0.00 0.00 86 1015.2
20260506020507 65 45 0.0 0.0 0.00 0.00 0.00 82 1015.2
20260506020007 65 45 0.0 0.0 0.00 0.00 0.00 81 1015.2
20260506015507 65 45 0.0 0.0 0.00 0.00 0.00 82 1015.2
20260506015006 65 45 0.0 5.0 0.00 0.00 0.00 83 1015.2
20260506014507 65 90 2.0 5.0 0.00 0.00 0.00 83 1015.2
20260506014007 65 180 0.0 0.0 0.00 0.00 0.00 83 1015.2
20260506013507 65 180 0.0 2.0 0.00 0.00 0.00 82 1015.2
20260506013007 65 180 0.0 0.0 0.00 0.00 0.00 80 1015.2
20260506012507 65 180 3.0 5.0 0.00 0.00 0.00 79 1015.2
20260506012007 65 180 3.0 5.0 0.00 0.00 0.00 77 1015.2
20260506011507 66 90 4.0 5.0 0.00 0.00 0.00 77 1015.2
20260506011007 66 90 3.0 6.0 0.00 0.00 0.00 80 1015.2
20260506010506 66 234 4.0 6.0 0.00 0.00 0.00 82 1015.2
20260506010007 65 189 4.0 6.0 0.00 0.00 0.00 86 1015.2
20260506005506 65 90 4.0 6.0 0.00 0.00 0.00 85 1015.2
20260506005007 65 153 4.0 5.0 0.00 0.00 0.00 84 1015.2
20260506004507 65 171 4.0 6.0 0.00 0.00 0.00 85 1015.2
20260506004007 65 279 2.0 4.0 0.00 0.00 0.00 84 1015.2
20260506003507 65 270 2.0 4.0 0.00 0.00 0.00 84 1015.2
20260506003007 65 243 1.0 5.0 0.00 0.00 0.00 84 1015.2
20260506002506 65 315 2.0 4.0 0.00 0.00 0.00 83 1015.2
20260506002007 65 126 3.0 6.0 0.00 0.00 0.00 82 1015.2
20260506001507 65 217 5.0 6.0 0.00 0.00 0.00 84 1015.5
20260506001007 65 135 0.0 1.0 0.00 0.00 0.00 86 1015.6
20260506000507 65 135 1.0 4.0 0.00 0.00 0.00 86 1015.6
20260506000006 65 181 2.0 5.0 0.00 0.00 0.00 84 1015.6
20260505235507 65 261 6.0 6.0 0.00 0.00 0.00 84 1015.6
20260505235007 65 216 4.0 5.0 0.00 0.00 0.00 85 1015.6
20260505234507 65 207 3.0 5.0 0.00 0.00 0.00 86 1015.6
20260505234007 65 225 2.0 5.0 0.00 0.00 0.00 84 1015.6
20260505233508 65 169 1.0 4.0 0.00 0.00 0.00 87 1015.6
20260505233007 65 254 3.0 6.0 0.00 0.00 0.00 88 1015.6
20260505232507 65 108 1.0 2.0 0.00 0.00 0.00 89 1015.9
20260505232006 64 270 2.0 4.0 0.00 0.00 0.00 89 1015.9
20260505231507 64 135 4.0 5.0 0.00 0.00 0.00 89 1015.9
20260505231007 64 81 4.0 7.0 0.00 0.00 0.00 91 1015.9
20260505230507 64 293 2.0 5.0 0.00 0.00 0.00 92 1015.9
20260505230007 64 210 3.0 5.0 0.00 0.00 0.00 91 1015.9
20260505225507 64 297 2.0 4.0 0.00 0.00 0.00 91 1015.9
20260505225007 64 270 0.0 2.0 0.00 0.00 0.00 91 1015.9
20260505224507 64 270 3.0 5.0 0.00 0.00 0.00 92 1015.9
20260505224006 64 315 2.0 7.0 0.00 0.00 0.00 91 1015.9
20260505223507 64 297 3.0 7.0 0.00 0.00 0.00 92 1016.0
20260505223007 64 315 0.0 0.0 0.00 0.00 0.00 92 1016.3
20260505222507 64 315 2.0 5.0 0.00 0.00 0.00 91 1016.3
20260505222007 64 169 5.0 5.0 0.00 0.00 0.00 91 1016.3
20260505221507 64 135 4.0 5.0 0.00 0.00 0.00 91 1016.3
20260505221007 64 259 4.0 5.0 0.00 0.00 0.00 91 1016.3
20260505220507 64 105 4.0 5.0 0.00 0.00 0.00 91 1016.3
20260505220007 64 315 0.0 3.0 0.00 0.00 0.00 90 1016.3